Date,TemperatureHighF,TemperatureAvgF,TemperatureLowF,DewpointHighF,DewpointAvgF,DewpointLowF,HumidityHigh,HumidityAvg,HumidityLow,PressureMaxIn,PressureMinIn,WindSpeedMaxMPH,WindSpeedAvgMPH,GustSpeedMaxMPH,PrecipitationSumIn
2013-2-1,-3.2,-3.2,-3.3,-9.1,-9.1,-9.2,75,75,75,31.02,31.01,1,1,1,0.00
2013-2-2,37.3,33.1,27.0,32.0,27.8,21.4,90,80,76,30.45,30.31,12,6,21,0.01
2013-2-3,43.1,30.9,17.3,32.4,24.3,12.7,92,77,58,30.53,29.94,19,6,24,0.01
2013-2-4,35.1,26.0,20.5,30.1,22.2,17.7,89,85,77,30.32,29.91,16,4,18,0.00
2013-2-5,48.1,35.0,24.8,34.0,27.3,21.8,91,75,51,30.31,30.08,20,5,20,0.00
2013-2-6,49.1,38.2,30.6,38.2,31.5,26.0,89,77,64,30.25,29.97,19,7,20,0.00
2013-2-7,39.6,31.4,27.2,35.0,27.1,22.0,90,84,80,30.55,30.01,18,4,18,0.00
2013-2-8,34.1,27.1,23.4,26.5,23.0,20.4,89,84,73,30.67,30.43,21,8,21,0.00
2013-2-9,48.2,36.8,26.2,37.1,31.2,23.4,91,81,65,30.44,29.80,29,16,29,0.01
2013-2-10,43.8,35.1,28.3,41.9,31.6,22.4,95,87,77,29.99,29.29,35,12,35,0.07
2013-2-11,31.4,27.4,19.0,24.4,21.4,15.2,86,78,71,30.48,29.98,26,7,26,0.00
2013-2-12,50.9,30.7,16.3,29.5,20.6,13.4,89,70,31,30.48,30.09,16,3,16,0.00
2013-2-13,24.4,23.8,23.2,19.8,19.5,19.0,85,83,81,30.11,30.05,5,1,5,0.00
2013-2-14,42.6,33.2,16.8,32.0,26.0,11.1,92,75,52,30.59,29.88,14,6,22,0.00
2013-2-15,31.3,20.8,10.5,21.5,14.1,6.6,89,76,56,30.75,30.59,9,2,13,0.00
2013-2-16,32.1,19.1,0.1,26.0,14.9,-3.6,96,83,76,30.75,30.32,14,4,14,0.06
2013-2-17,50.4,34.3,18.3,37.5,27.2,15.1,88,76,60,30.33,29.66,28,8,28,0.00
2013-2-18,37.0,28.7,15.2,31.1,22.3,8.7,87,77,60,30.44,29.66,27,9,27,0.00
2013-2-19,23.9,12.8,2.9,9.0,2.3,-3.4,77,64,39,30.90,30.44,25,8,25,0.00
2013-2-20,23.9,12.8,0.2,7.5,1.9,-5.0,80,63,45,30.94,30.64,19,8,19,0.00
2013-2-21,24.5,20.3,18.2,17.9,13.0,6.8,90,74,55,30.64,30.19,26,13,26,0.00
2013-2-22,23.1,16.7,7.7,18.9,13.4,4.2,89,86,82,30.45,30.19,16,3,16,0.02
2013-2-23,30.8,15.7,-0.5,25.2,11.7,-4.2,92,84,79,30.41,30.16,12,3,12,0.00
2013-2-24,34.2,24.9,11.5,29.3,21.5,8.6,92,87,79,30.39,30.19,9,2,9,0.00
2013-2-25,35.1,26.2,19.3,28.6,22.7,16.9,92,87,77,30.45,30.22,17,3,17,0.01
2013-2-26,31.5,26.1,22.3,27.5,23.5,20.1,92,90,84,30.24,30.06,13,4,13,0.00
2013-2-27,35.2,27.4,20.5,26.7,22.5,17.2,89,82,70,30.39,30.17,25,10,25,0.00
2013-2-28,31.2,26.0,23.5,25.7,21.6,18.8,87,83,78,30.58,30.38,19,6,19,0.00